Location: *
(49.9853°N, 3.5569°E)
Time: 05:32:23
(UTC+00:00)

CZ-2C R/B - Pass Details

Date: 22 September 2019
Orbit: 639 x 705 km, 98.4° (Epoch: 18 October)

Event Time Altitude Azimuth Distance (km) Brightness Sun altitude
Rises 18:57:47 0° 18° (NNE) 2,975 7.0 -12.4°
Reaches altitude 10° 19:00:05 10° 24° (NNE) 2,054 6.1 -12.8°
Maximum altitude 19:04:25 49° 100° (E) 827 3.8 -13.5°
Drops below altitude 10° 19:08:42 10° 176° (S) 2,027 6.0 -14.1°
Sets 19:10:57 0° 182° (S) 2,933 6.9 -14.5°
